• In Hungary
  • List of Countries
  • For 7 days
  • Water Temperature
  • Satellite Maps
  • Weather Map
  • News
  • Weather Widgets
  • user-avatar
    Login

    Hourly Weather Tomashpol

    Today, 26 September, Wednesday

    Time Temperature Precipitation Wind Pressure Humidity
    00:00 +3°C° 0 mm 5 mps 747 mmHg 74%
    01:00 +3°C° 0 mm 5 mps 747 mmHg 76%
    02:00 +4°C° 0 mm 4 mps 748 mmHg 83%
    03:00 +3°C° 0 mm 4 mps 748 mmHg 84%
    04:00 +3°C° 0 mm 4 mps 748 mmHg 85%
    05:00 +3°C° 0 mm 4 mps 749 mmHg 87%
    06:00 +3°C° 0 mm 5 mps 749 mmHg 82%
    07:00 +3°C° 0 mm 5 mps 750 mmHg 78%
    08:00 +4°C° 0 mm 6 mps 750 mmHg 72%
    09:00 +5°C° 0 mm 6 mps 750 mmHg 63%
    10:00 +8°C° 0 mm 5 mps 751 mmHg 53%
    11:00 +9°C° 0 mm 5 mps 751 mmHg 44%
    12:00 +10°C° 0 mm 5 mps 751 mmHg 42%
    13:00 +10°C° 0 mm 5 mps 751 mmHg 40%
    14:00 +12°C° 0 mm 5 mps 751 mmHg 38%
    15:00 +11°C° 0 mm 4 mps 750 mmHg 41%
    16:00 +11°C° 0 mm 3 mps 750 mmHg 43%
    17:00 +11°C° 0 mm 3 mps 750 mmHg 45%
    18:00 +9°C° 0 mm 2 mps 750 mmHg 49%
    19:00 +8°C° 0 mm 2 mps 750 mmHg 53%
    20:00 +8°C° 0 mm 1 mps 750 mmHg 57%
    21:00 +7°C° 0 mm 1 mps 750 mmHg 58%
    22:00 +7°C° 0 mm 1 mps 749 mmHg 59%
    23:00 +6°C° 0 mm 2 mps 749 mmHg 60%

    Tomorrow, 27 September, Thursday

    Time Temperature Precipitation Wind Pressure Humidity
    00:00 +6°C° 0 mm 2 mps 749 mmHg 61%
    01:00 +5°C° 0 mm 2 mps 749 mmHg 62%
    02:00 +4°C° 0 mm 3 mps 748 mmHg 63%
    03:00 +4°C° 0 mm 3 mps 748 mmHg 62%
    04:00 +5°C° 0 mm 3 mps 747 mmHg 61%
    05:00 +5°C° 0 mm 4 mps 747 mmHg 60%
    06:00 +6°C° 0 mm 4 mps 746 mmHg 58%
    07:00 +6°C° 0 mm 5 mps 746 mmHg 55%
    08:00 +7°C° 0 mm 5 mps 746 mmHg 52%
    09:00 +9°C° 0 mm 5 mps 746 mmHg 47%
    10:00 +11°C° 0 mm 6 mps 746 mmHg 42%
    11:00 +13°C° 0 mm 6 mps 746 mmHg 37%
    12:00 +14°C° 0 mm 6 mps 745 mmHg 39%
    13:00 +14°C° 0 mm 6 mps 745 mmHg 40%
    14:00 +14°C° 0 mm 6 mps 745 mmHg 42%
    15:00 +14°C° 0 mm 5 mps 745 mmHg 46%
    16:00 +13°C° 0 mm 5 mps 744 mmHg 51%
    17:00 +13°C° 0 mm 4 mps 744 mmHg 56%
    18:00 +12°C° 0 mm 4 mps 744 mmHg 61%
    19:00 +11°C° 0 mm 3 mps 744 mmHg 67%
    20:00 +10°C° 0 mm 3 mps 744 mmHg 72%
    21:00 +9°C° 0 mm 3 mps 744 mmHg 76%
    22:00 +9°C° 0 mm 2 mps 744 mmHg 80%
    23:00 +9°C° 0 mm 2 mps 744 mmHg 84%

    Day after tomorrow, 28 September, Friday

    Time Temperature Precipitation Wind Pressure Humidity
    00:00 +9°C° 0 mm 2 mps 744 mmHg 84%
    01:00 +9°C° 0 mm 2 mps 744 mmHg 85%
    02:00 +9°C° 0 mm 2 mps 744 mmHg 86%
    03:00 +9°C° 0 mm 2 mps 743 mmHg 84%
    04:00 +9°C° 0 mm 2 mps 743 mmHg 82%
    05:00 +9°C° 0 mm 2 mps 743 mmHg 80%
    06:00 +10°C° 0 mm 2 mps 742 mmHg 77%
    07:00 +12°C° 0 mm 2 mps 742 mmHg 73%
    08:00 +12°C° 0 mm 3 mps 742 mmHg 69%
    09:00 +14°C° 0 mm 3 mps 741 mmHg 64%
    10:00 +17°C° 0 mm 3 mps 741 mmHg 58%
    11:00 +19°C° 0 mm 4 mps 741 mmHg 53%
    12:00 +20°C° 0 mm 4 mps 740 mmHg 50%
    13:00 +21°C° 0 mm 4 mps 740 mmHg 48%
    14:00 +21°C° 0 mm 4 mps 739 mmHg 45%
    15:00 +21°C° 0 mm 3 mps 739 mmHg 47%
    16:00 +20°C° 0 mm 2 mps 738 mmHg 49%
    17:00 +20°C° 0 mm 2 mps 738 mmHg 51%
    18:00 +18°C° 0 mm 2 mps 738 mmHg 54%
    19:00 +17°C° 0 mm 2 mps 738 mmHg 57%
    20:00 +15°C° 0 mm 2 mps 738 mmHg 59%
    21:00 +15°C° 0 mm 2 mps 738 mmHg 60%
    22:00 +15°C° 0 mm 1 mps 738 mmHg 61%
    23:00 +14°C° 0 mm 1 mps 738 mmHg 62%

    29 September, Saturday

    Time Temperature Precipitation Wind Pressure Humidity
    00:00 +14°C° 0 mm 1 mps 737 mmHg 64%
    01:00 +13°C° 0 mm 1 mps 737 mmHg 66%
    02:00 +13°C° 0 mm 1 mps 737 mmHg 69%
    03:00 +13°C° 0 mm 1 mps 737 mmHg 71%
    04:00 +12°C° 0 mm 1 mps 737 mmHg 74%
    05:00 +12°C° 0 mm 1 mps 737 mmHg 76%
    06:00 +13°C° 0.2 mm 1 mps 737 mmHg 75%
    07:00 +14°C° 0.2 mm 1 mps 738 mmHg 74%
    08:00 +14°C° 0.2 mm 1 mps 738 mmHg 73%
    09:00 +15°C° 0.7 mm 2 mps 738 mmHg 72%
    10:00 +14°C° 0.7 mm 3 mps 738 mmHg 71%
    11:00 +15°C° 0.7 mm 4 mps 739 mmHg 70%
    12:00 +13°C° 0.4 mm 5 mps 739 mmHg 73%
    13:00 +11°C° 0.4 mm 6 mps 739 mmHg 77%
    14:00 +9°C° 0.4 mm 7 mps 739 mmHg 81%
    15:00 +9°C° 0.6 mm 7 mps 740 mmHg 82%
    16:00 +9°C° 0.6 mm 6 mps 740 mmHg 82%
    17:00 +8°C° 0.6 mm 6 mps 741 mmHg 83%
    18:00 +8°C° 0.2 mm 5 mps 741 mmHg 84%
    19:00 +7°C° 0.2 mm 5 mps 742 mmHg 86%
    20:00 +7°C° 0.2 mm 4 mps 742 mmHg 88%
    21:00 +6°C° 0 mm 4 mps 743 mmHg 89%
    22:00 +6°C° 0 mm 4 mps 743 mmHg 90%
    23:00 +6°C° 0 mm 4 mps 743 mmHg 91%

    30 September, Sunday

    Time Temperature Precipitation Wind Pressure Humidity
    00:00 +6°C° 0 mm 4 mps 743 mmHg 92%
    01:00 +5°C° 0 mm 4 mps 744 mmHg 92%
    02:00 +5°C° 0 mm 4 mps 744 mmHg 92%
    03:00 +5°C° 0 mm 4 mps 744 mmHg 92%
    04:00 +5°C° 0 mm 4 mps 744 mmHg 91%
    05:00 +4°C° 0 mm 4 mps 745 mmHg 91%
    06:00 +5°C° 0 mm 4 mps 745 mmHg 87%
    07:00 +5°C° 0 mm 4 mps 745 mmHg 82%
    08:00 +6°C° 0 mm 5 mps 746 mmHg 77%
    09:00 +8°C° 0 mm 4 mps 746 mmHg 69%
    10:00 +10°C° 0 mm 4 mps 746 mmHg 61%
    11:00 +12°C° 0 mm 4 mps 746 mmHg 53%
    12:00 +13°C° 0 mm 4 mps 746 mmHg 49%
    13:00 +13°C° 0 mm 4 mps 745 mmHg 45%
    14:00 +14°C° 0 mm 4 mps 745 mmHg 42%
    15:00 +13°C° 0 mm 3 mps 745 mmHg 44%
    16:00 +13°C° 0 mm 3 mps 745 mmHg 47%
    17:00 +13°C° 0 mm 2 mps 745 mmHg 50%
    18:00 +12°C° 0 mm 2 mps 745 mmHg 53%
    19:00 +9°C° 0 mm 2 mps 745 mmHg 57%
    20:00 +8°C° 0 mm 2 mps 745 mmHg 61%
    21:00 +8°C° 0 mm 2 mps 745 mmHg 62%
    22:00 +7°C° 0 mm 2 mps 744 mmHg 64%
    23:00 +7°C° 0 mm 2 mps 744 mmHg 65%

    1 October, Monday

    Time Temperature Precipitation Wind Pressure Humidity
    00:00 +6°C° 0 mm 2 mps 744 mmHg 66%
    01:00 +6°C° 0 mm 2 mps 744 mmHg 67%
    02:00 +6°C° 0 mm 2 mps 743 mmHg 68%
    03:00 +5°C° 0 mm 2 mps 743 mmHg 68%
    04:00 +5°C° 0 mm 2 mps 743 mmHg 69%
    05:00 +5°C° 0 mm 2 mps 742 mmHg 70%
    06:00 +6°C° 0 mm 2 mps 742 mmHg 67%
    07:00 +7°C° 0 mm 2 mps 742 mmHg 63%
    08:00 +8°C° 0 mm 3 mps 742 mmHg 60%
    09:00 +10°C° 0 mm 3 mps 741 mmHg 54%
    10:00 +12°C° 0 mm 3 mps 741 mmHg 49%
    11:00 +14°C° 0 mm 3 mps 741 mmHg 43%
    12:00 +14°C° 0 mm 3 mps 740 mmHg 42%
    13:00 +16°C° 0 mm 3 mps 740 mmHg 40%
    14:00 +17°C° 0 mm 3 mps 739 mmHg 38%
    15:00 +16°C° 0 mm 2 mps 739 mmHg 42%
    16:00 +16°C° 0 mm 2 mps 738 mmHg 45%
    17:00 +15°C° 0 mm 2 mps 738 mmHg 48%
    18:00 +14°C° 0 mm 2 mps 738 mmHg 51%
    19:00 +12°C° 0 mm 2 mps 738 mmHg 55%
    20:00 +10°C° 0 mm 2 mps 737 mmHg 58%
    21:00 +9°C° 0 mm 2 mps 737 mmHg 60%
    22:00 +9°C° 0 mm 2 mps 737 mmHg 62%
    23:00 +8°C° 0 mm 2 mps 737 mmHg 64%
    Show more